Preview of NWS' New Version of Forecast
This preview is not operational and should not be used for support decisions.

Regional Weather Roundup (RWR)

Issued by National Weather Service (NWS)

                            
000
ASUS43 KMKX 220411
RWRWI 

WISCONSIN REGIONAL WEATHER ROUNDUP
NATIONAL WEATHER SERVICE MILWAUKEE/SULLIVAN WI
1000 PM CST THU FEB 21 2019

NOTE: "FAIR" INDICATES FEW OR NO CLOUDS BELOW 12,000 FEET WITH NO
SIGNIFICANT WEATHER AND/OR OBSTRUCTIONS TO VISIBILITY.

WIZ001-002-006>008-014>016-023>028-220500-
NORTHWEST WISCONSIN
  
CITY           SKY/WX    TMP DP  RH WIND       PRES   REMARKS
SUPERIOR ARPT  FAIR      21  15  78 SW9       30.27R WCI  11          
ASHLAND        CLOUDY    20  16  84 SW9       30.27R WCI   9          
HAYWARD        CLOUDY    11   9  92 CALM      30.27R FOG              
SIREN          FAIR       2  -1  85 CALM      30.30R FOG              
CUMBERLAND     FOG        5   1  85 CALM      30.28R VSB 1/2          
RICE LAKE      MOCLDY    -1 -12  61 CALM      30.31R                  
CHETEK         FAIR       3   0  87 SW5       30.30R WCI  -7          
LADYSMITH      FAIR       9   7  92 CALM      30.27R FOG              
EAU CLAIRE     FAIR       9   6  88 W3        30.31R FOG              
MENOMONIE      FOG        3  -1  83 CALM      30.32R VSB 3/4          
NEW RICHMOND   FAIR       4   1  85 S5        30.32R FOG     WCI  -5  
OSCEOLA        FAIR       4   1  90 CALM      30.34R FOG              
$$
 
WIZ003>005-009-010-017-018-220500-
NORTH CENTRAL WISCONSIN
  
CITY           SKY/WX    TMP DP  RH WIND       PRES   REMARKS
MANITOWISH WTR NOT AVBL                                               
ARBOR VITAE    FOG       15  13  92 CALM      30.20S VSB 1            
WOODRUFF       FOG       15  13  92 CALM      30.20S VSB 1            
RHINELANDER    CLOUDY    15  11  83 CALM      30.21R                  
EAGLE RIVER    FAIR      13  11  92 CALM      30.20S FOG              
LAND O LAKES   FOG        6   3  88 CALM      30.23R VSB 3/4          
PHILLIPS       CLOUDY     6   5  94 CALM      30.23R                  
TOMAHAWK       FAIR       8   7  92 CALM      30.24R                  
MEDFORD        FAIR       6   3  88 CALM      30.25R FOG              
MERRILL        FAIR       7   5  93 CALM      30.26R FOG              
$$
 
WIZ029-030-035-036-043>047-220500-
CENTRAL WISCONSIN
  
CITY           SKY/WX    TMP DP  RH WIND       PRES   REMARKS
WAUSAU         FAIR      11   8  88 CALM      30.25R FOG              
MOSINEE        FAIR      12  10  92 CALM      30.27R                  
MARSHFIELD     FAIR       9   7  92 W3        30.26R FOG              
STEVENS POINT  FAIR       6   6  98 CALM      30.29R                  
WAUPACA        FAIR      10   6  86 CALM      30.29R                  
WAUTOMA        FAIR       5   2  87 W3        30.31R                  
WISC RAPIDS    FAIR      10   4  76 CALM      30.30R HAZE             
CAMP DOUGLAS   FAIR       7   5  94 CALM      30.31R                  
$$
 
WIZ011>013-019>022-031-037>040-048>050-220500-
NORTHEAST WISCONSIN
  
CITY           SKY/WX    TMP DP  RH WIND       PRES   REMARKS
ANTIGO         FAIR       2   0  93 SW3       30.24R FOG              
SHAWANO        FAIR      19  11  72 W5        30.27S WCI  12          
OCONTO         FAIR      13   9  82 CALM      30.29R                  
STURGEON BAY   FAIR      20  13  74 W7        30.27R WCI  11          
GREEN BAY      FAIR      20  11  68 CALM      30.29R                  
MANITOWOC      FAIR      18  12  77 NW7       30.29  WCI   9          
APPLETON       PTCLDY    18   9  68 W5        30.25S WCI  11          
CLINTONVILLE   FAIR      11   8  85 CALM      30.29R                  
OSHKOSH        FAIR      14  10  84 CALM      30.28R                  
$$
 
WIZ032>034-041-042-053>061-220500-
SOUTHWEST WISCONSIN
  
CITY           SKY/WX    TMP DP  RH WIND       PRES   REMARKS
LA CROSSE      FAIR       8   6  92 CALM      30.35R FOG              
SPARTA         FAIR       4   2  92 CALM      30.33R                  
VIROQUA        FAIR      13  11  90 W6        30.30R WCI   4          
BOSCOBEL       FAIR       9   7  92 CALM      30.36R                  
PRAIRIE DU CHI FAIR      14   7  74 NW5       30.35R WCI   7          
PLATTEVILLE    FAIR      14  11  89 NW5       30.32R WCI   6          
$$

WIZ056-057-062-063-064-067-068-220500-
SOUTH CENTRAL WISCONSIN
  
CITY           SKY/WX    TMP DP  RH WIND       PRES   REMARKS
REEDSBURG      FAIR      12  10  92 CALM      30.31R                  
BARABOO/DELLS  FAIR      11   8  86 CALM      30.30R                  
LONE ROCK      FAIR       7   5  91 W3        30.33R                  
MINERAL POINT  FAIR      16  12  86 NW3       30.29S                  
MADISON        FAIR      11   8  88 CALM      30.30R                  
MIDDLETON      FAIR       6   3  88 CALM      30.31R                  
WATERTOWN      FAIR      11   8  89 CALM      30.29R                  
MONROE         FAIR      20  12  72 MISG      30.29R                  
JANESVILLE     FAIR      21  14  73 CALM      30.31R                  
$$
 
WIZ051-052-058>065-066-070>072-220500-
SOUTHEAST WISCONSIN
  
CITY           SKY/WX    TMP DP  RH WIND       PRES   REMARKS
MILWAUKEE      FAIR      25  13  60 CALM      30.30R                  
WAUKESHA       FAIR      19  10  68 CALM      30.30R                  
MILWAUKEE/TIMM FAIR      21  12  68 CALM      30.30R                  
RACINE         FAIR      22  12  65 CALM      30.31R                  
KENOSHA        FAIR      23  15  71 CALM      30.30R                  
FOND DU LAC    FAIR      10   5  80 CALM      30.29R                  
SHEBOYGAN      FAIR      18  11  74 W5        30.28R WCI  11          
WEST BEND      FAIR      18  12  79 CALM      30.28R                  
JUNEAU         FAIR      14  10  85 CALM      30.30R                  
$$

LSZ147-162-220500-
LAKE SUPERIOR
  
STATION/POSITION TIME  TEMP    WIND        PRES    WAVE
                       AIR SEA DIR/SP/G            HT/PER
                 (UTC) (F)     (DEG/KT/KT) (MB)    (FT/S)
DEVILS ISLAND    0400   27     240/ 12/ 14 1025.2R
SAXON HARBOR     0330   24     190/  5/  7 1024.4R
$$
 
LMZ867-665-643>646-220500-
LAKE MICHIGAN
  
STATION/POSITION TIME  TEMP    WIND        PRES    WAVE
                       AIR SEA DIR/SP/G            HT/PER
                 (UTC) (F)     (DEG/KT/KT) (MB)    (FT/S)
CHAMBERS ISLAND  0340   23     250/  3/  5 1024.0S
NORTHPORT PIER   0402   25     280/  3/  4 1024.7
KEWAUNEE LAKESHO 0336   20     300/  7/  9 1024.1S
SHEBOYGAN LAKESH 0400   23     300/  2/  4 1026.5S
PORT WASHINGTON  0340   22     280/  2/  3 1026.8S
MILWAUKEE LAKESH 0350   25     290/  3/  6   N/A
KENOSHA   LAKESH 0400   25     290/  2/  4 1026.1
$$

TC  - TEMPERATURE IN CELSIUS
VSB - VISIBILITY IN STATUTE MILES
WCI - WIND CHILL INDEX
HX  - HEAT INDEX